Regional Weather Roundup
Issued by NWS

Home | Current Version | Previous Version | Graphics & Text | Print | Product List | Glossary On
Versions: 1 2 3 4 5 6 7 8 9 10 11 12 13 14 15 16 17 18 19 20 21 22 23 24 25 26 27 28 29 30 31 32 33 34 35 36 37 38 39 40 41 42 43 44 45 46 47 48 49 50
000
ASUS43 KDMX 271901
RWRIA

WEATHER ROUNDUP FOR IOWA
NATIONAL WEATHER SERVICE DES MOINES IA
200 PM CDT MON MAR 27 2017

NOTE: "FAIR" INDICATES FEW OR NO CLOUDS BELOW 12,000 FEET WITH NO
SIGNIFICANT WEATHER AND/OR OBSTRUCTIONS TO VISIBILITY.

* - THESE STATIONS ARE NOT NWS STATIONS...THUS NOT UNDER NWS
QUALITY CONTROL.  THEY ALSO DO NOT REPORT WEATHER SUCH
AS PRECIPITATION OR FOG.

IAZ001>003-012>014-020>022-031>034-043>046-272000-
   NORTHWEST IOWA

CITY           SKY/WX    TMP DP  RH WIND       PRES   REMARKS
CARROLL *      CLOUDY    48  41  76 N12       29.98R
CHEROKEE *     CLOUDY    49  40  72 NE8       29.99S
LE MARS *      CLOUDY    54  41  62 NE8       29.98F
ORANGE CITY *  CLOUDY    48  39  71 NE6       29.98S
SHELDON *      CLOUDY    46 N/A N/A NE3       29.97R
SIOUX CITY     CLOUDY    53  40  61 CALM      29.98S
SPENCER        CLOUDY    48  38  68 N9        29.98S
STORM LAKE *     N/A     46  39  76 NE9       29.98S
$$

IAZ055>058-069>071-079>083-090>094-272000-
   SOUTHWEST IOWA

CITY           SKY/WX    TMP DP  RH WIND       PRES   REMARKS
ATLANTIC *     CLOUDY    48  41  76 NE9       29.97S
AUDUBON *      CLOUDY    50  43  76 N8        29.98S
CLARINDA *     CLOUDY    48  45  87 NE10      29.99S
COUNCIL BLFS *   N/A     48  43  81 N5        29.98S
HARLAN  *      CLOUDY    48  43  81 NE7       30.01S
LAMONI         CLOUDY    47  45  93 N9        29.93F
RED OAK *      CLOUDY    48  41  76 N10       29.97F
SHENANDOAH *   CLOUDY    50  43  76 N13       29.98S
$$

IAZ047>049-059>061-072>074-084-272000-
   CENTRAL IOWA

CITY           SKY/WX    TMP DP  RH WIND       PRES   REMARKS
AMES           CLOUDY    48  43  82 N7        29.96F
ANKENY *       CLOUDY    48  43  81 N6        29.97S
BOONE *        CLOUDY    46  43  87 N6        29.95F
CHARITON *     CLOUDY    48  46  93 N7        29.94F
DES MOINES     CLOUDY    49  42  77 N8        29.96S
GRINNELL*      CLOUDY    47  43  88 N7        29.96F
KNOXVILLE *    CLOUDY    46  45  93 N6        29.93F FOG
MARSHALLTOWN   CLOUDY    46  43  89 N7        29.95S
NEWTON *       CLOUDY    46  43  87 N5        29.94F
PELLA *        CLOUDY    47  46  93 N5        29.95F FOG
PERRY *        CLOUDY    48  42  79 NW8       29.97F
$$

IAZ004>006-015-016-023>025-035-036-272000-
   NORTH CENTRAL IOWA

CITY           SKY/WX    TMP DP  RH WIND       PRES   REMARKS
ALGONA *       CLOUDY    46  41  81 N10       29.97S
CLARION *      CLOUDY    45  43  93 N5        29.97S
ESTHERVILLE    CLOUDY    47  40  76 N9        29.97S
FORT DODGE *   CLOUDY    46  39  76 N9        29.98R
MASON CITY     CLOUDY    47  39  74 N5        29.97F
FOREST CITY *  CLOUDY    45  39  81 N6        29.96S
IOWA FALLS *   CLOUDY    48  42  79 N5        29.96F
$$

IAZ007>011-017>019-026>030-037>042-050>054-066-272000-
   NORTHEAST IOWA

CITY           SKY/WX    TMP DP  RH WIND       PRES   REMARKS
CEDAR RAPIDS   CLOUDY    48  46  93 N7        29.93S FOG
CHARLES CITY * CLOUDY    46  45  93 N6        29.96S
CLINTON *      LGT RAIN  50  46  86 VRB3      29.93S
DECORAH *      CLOUDY    46  41  81 NW3       29.93F
DUBUQUE        CLOUDY    48  43  82 NE5       29.93F
MONTICELLO *   CLOUDY    50  45  81 NW5       29.93S
OELWEIN *      CLOUDY    48  45  87 N6        29.94F
WATERLOO       CLOUDY    48  40  73 NW3       29.95F
$$

IAZ064-065-067-068-078-272000-
   EAST CENTRAL IOWA

CITY           SKY/WX    TMP DP  RH WIND       PRES   REMARKS
DAVENPORT      LGT RAIN  50  45  83 CALM      29.92F
IOWA CITY      CLOUDY    53  45  74 N5        29.94S
MUSCATINE *    LGT RAIN  52  46  82 CALM      29.93S
QUAD CITIES    LGT RAIN  52  45  77 CALM      29.91F
$$

IAZ062-063-075>077-085>089-095>099-272000-
   SOUTHEAST IOWA

CITY           SKY/WX    TMP DP  RH WIND       PRES   REMARKS
BURLINGTON     LGT RAIN  52  49  89 NE3       29.89F
FAIRFIELD *    CLOUDY    50  45  81 CALM      29.92F
FORT MADISON * DRIZZLE   54  52  94 CALM      29.90F
KEOKUK *       LGT RAIN  52  50  93 N3        29.89F
OSKALOOSA *    CLOUDY    48  44  85 N10       29.94S
CENTERVILLE *  LGT RAIN  46  46 100 N7        29.94S
OTTUMWA        CLOUDY    50  46  86 N7        29.92F
WASHINGTON *   CLOUDY    50  48  93 N3        29.94S FOG
$$

ABBREVIATIONS USED IN REMARKS
   TC - TEMPERATURES IN CELSIUS
  WCI - WIND CHILL INDEX
   HX - HEAT INDEX
  VSB - VISIBILITY
$$





USA.gov is the U.S. government's official web portal to all federal, state and local government web resources and services.